Location: Pacheco
(37.9835°N, 122.0752°W)
Time: 10:11:15
(UTC+00:00)

Cosmos 1048 Rocket - Pass Details

Date: 13 April 2024
Orbit: 742 x 788 km, 74.0° (Epoch: 23 May)

Event Time Altitude Azimuth Distance (km) Brightness Sun altitude
Rises 12:37:22 0° 195° (SSW) 3,261 6.9 -11.7°
Reaches altitude 10° 12:39:45 10° 194° (SSW) 2,334 6.2 -11.2°
Maximum altitude 12:45:05 84° 107° (ESE) 788 4.1 -10.2°
Drops below altitude 10° 12:50:22 10° 20° (NNE) 2,325 7.1 -9.3°
Sets 12:52:45 0° 19° (NNE) 3,249 7.9 -8.8°
